Surface/Precipitation History
11/20/2017 01:15  to  11/21/2017 01:15
Change End Date:
Date/Time
(MST)
Sf
Temp Chem Water Layer Surface Precipitation
Sfc Pvt Sub Frz Factor Pct Dpth DpthThk IcePct Cond Salin FI Type Intens Accum Rate
11/21/2017 01:10 Chemically Wet 28.2F - 31F 3F 95 50% 0.00 in - 0% 2997 mhos 15000 - Yes - - -
11/21/2017 01:03 Chemically Wet 28.4F - 31F 3F 95 50% 0.00 in - 0% 3006 mhos 15000 - None None - -
11/21/2017 00:55 Chemically Wet 28.4F - 31F 3F 95 50% 0.00 in - 0% 3000 mhos 15000 - None None - -
11/21/2017 00:53 Chemically Wet 28.4F - 31F 3F 95 50% 0.00 in - 0% 3000 mhos 15000 - None None - -
11/21/2017 00:43 Chemically Wet 28.2F - 31F 3F 95 50% 0.00 in - 0% 2996 mhos 15000 - None None - -
11/21/2017 00:40 Chemically Wet 28.0F - 31F 3F 95 50% 0.00 in - 0% 2991 mhos 15000 - None None - -
11/21/2017 00:33 Chemically Wet 27.9F - 31F 3F 95 50% 0.00 in - 0% 2986 mhos 15000 - None None - -
11/21/2017 00:25 Chemically Wet 27.9F - 31F 3F 95 50% 0.00 in - 0% 2988 mhos 15000 - Yes - - -
11/21/2017 00:23 Chemically Wet 27.9F - 31F 3F 95 50% 0.00 in - 0% 6149 mhos 15000 - Yes - - -
11/21/2017 00:13 Chemically Wet 27.3F - 31F 3F 95 50% 0.00 in - 0% 3004 mhos 15000 - None None - -
11/21/2017 00:10 Chemically Wet 27.3F - 31F 3F 95 50% 0.00 in - 0% 3006 mhos 15000 - None None - -
11/21/2017 00:03 Chemically Wet 27.5F - 31F 3F 95 50% 0.00 in - 0% 1987 mhos 15000 - None None - -
11/20/2017 23:55 Chemically Wet 28.2F - 31F 3F 95 50% 0.00 in - 0% 1988 mhos 15000 - None None - -
11/20/2017 23:52 Chemically Wet 28.4F - 31F 3F 95 50% 0.00 in - 0% 1481 mhos 15000 - None None - -
11/20/2017 23:42 Chemically Wet 28.4F - 31F 3F 95 50% 0.00 in - 0% 595 mhos 15000 - None None - -
Date/Time
(MST)
Sf
Temp Chem Water Layer Surface Precipitation
Sfc Pvt Sub Frz Factor Pct Dpth DpthThk IcePct Cond Salin FI Type Intens Accum Rate
11/20/2017 23:40 Chemically Wet 28.2F - 31F 3F 85 50% 0.00 in - 0% 496 mhos 15000 - None None - -
11/20/2017 23:32 Chemically Wet 28.0F - 31F 3F 20 50% 0.00 in - 0% 332 mhos 15000 - None None - -
11/20/2017 23:25 Chemically Wet 27.9F - 31F 3F 15 50% 0.00 in - 0% 332 mhos 15000 - None None - -
11/20/2017 23:22 Chemically Wet 28.2F - 31F 3F 15 50% 0.00 in - 0% 351 mhos 15000 - None None - -
11/20/2017 23:12 Chemically Wet 29.3F - 31F 3F 10 50% 0.00 in - 0% 373 mhos 15000 - None None - -
11/20/2017 23:10 Chemically Wet 29.5F - 31F 3F 10 50% 0.00 in - 0% 398 mhos 15000 - Yes - - -
11/20/2017 23:02 Chemically Wet 29.7F - 31F 3F 15 50% 0.00 in - 0% 398 mhos 15000 - Yes - - -
11/20/2017 22:55 Chemically Wet 29.5F - 31F 3F 15 50% 0.00 in - 0% 398 mhos 15000 - None None - -
11/20/2017 22:52 Chemically Wet 29.5F - 31F 3F 15 50% 0.00 in - 0% 373 mhos 15000 - None None - -
11/20/2017 22:42 Chemically Wet 29.5F - 31F 3F 10 50% 0.00 in - 0% 373 mhos 15000 - None None - -
11/20/2017 22:40 Chemically Wet 29.7F - 31F 3F 15 50% 0.00 in - 0% 398 mhos 15000 - None None - -
11/20/2017 22:32 Chemically Wet 29.7F - 31F 3F 10 50% 0.00 in - 0% 398 mhos 15000 - None None - -
11/20/2017 22:25 Chemically Wet 29.7F - 31F 3F 10 50% 0.00 in - 0% 398 mhos 15000 - None None - -
11/20/2017 22:22 Chemically Wet 29.8F - 31F 3F 10 50% 0.00 in - 0% 398 mhos 15000 - None None - -
11/20/2017 22:12 Chemically Wet 29.8F - 31F 3F 10 50% 0.00 in - 0% 398 mhos 15000 - None None - -
Date/Time
(MST)
Sf
Temp Chem Water Layer Surface Precipitation
Sfc Pvt Sub Frz Factor Pct Dpth DpthThk IcePct Cond Salin FI Type Intens Accum Rate
11/20/2017 22:10 Chemically Wet 29.8F - 31F 3F 10 50% 0.00 in - 0% 373 mhos 15000 - None None - -
11/20/2017 22:02 Chemically Wet 29.8F - 31F 3F 10 50% 0.00 in - 0% 373 mhos 15000 - None None - -
11/20/2017 21:55 Chemically Wet 29.8F - 31F 3F 10 50% 0.00 in - 0% 373 mhos 15000 - None None - -
11/20/2017 21:52 Chemically Wet 29.8F - 31F 3F 10 50% 0.00 in - 0% 373 mhos 15000 - None None - -
11/20/2017 21:42 Chemically Wet 29.7F - 31F 3F 10 50% 0.00 in - 0% 373 mhos 15000 - Yes - - -
11/20/2017 21:40 Chemically Wet 29.8F - 31F 3F 10 50% 0.00 in - 0% 373 mhos 15000 - Yes - - -
11/20/2017 21:32 Chemically Wet 29.8F - 31F 3F 10 50% 0.00 in - 0% 373 mhos 15000 - Yes - - -
11/20/2017 21:25 Chemically Wet 29.8F - 31F 3F 15 50% 0.00 in - 0% 373 mhos 15000 - Yes - - -
11/20/2017 21:22 Chemically Wet 29.8F - 31F 3F 20 50% 0.00 in - 0% 351 mhos 15000 - Yes - - -
11/20/2017 21:12 Chemically Wet 29.8F - 31F 3F 15 50% 0.00 in - 0% 332 mhos 15000 - None None - -
11/20/2017 21:10 Chemically Wet 29.7F - 31F 3F 15 50% 0.00 in - 0% 332 mhos 15000 - None None - -
11/20/2017 21:01 Chemically Wet 29.5F - 31F 3F 15 50% 0.00 in - 0% 314 mhos 15000 - Yes - - -
11/20/2017 20:55 Chemically Wet 29.7F - 31F 3F 15 50% 0.00 in - 0% 314 mhos 15000 - Yes - - -
11/20/2017 20:51 Chemically Wet 29.7F - 31F 3F 15 50% 0.00 in - 0% 314 mhos 15000 - Yes - - -
11/20/2017 20:41 Chemically Wet 29.7F - 31F 3F 20 50% 0.00 in - 0% 284 mhos 15000 - None None - -
Date/Time
(MST)
Sf
Temp Chem Water Layer Surface Precipitation
Sfc Pvt Sub Frz Factor Pct Dpth DpthThk IcePct Cond Salin FI Type Intens Accum Rate
11/20/2017 20:40 Chemically Wet 29.7F - 31F 3F 20 50% 0.00 in - 0% 284 mhos 15000 - None None - -
11/20/2017 20:31 Chemically Wet 29.5F - 31F 3F 20 50% 0.00 in - 0% 271 mhos 15000 - None None - -
11/20/2017 20:25 Chemically Wet 29.7F - 31F 3F 20 50% 0.00 in - 0% 259 mhos 15000 - None None - -
11/20/2017 20:21 Chemically Wet 29.5F - 31F 3F 20 50% 0.00 in - 0% 248 mhos 15000 - None None - -
11/20/2017 20:11 Chemically Wet 29.5F - 31F 3F 20 50% 0.00 in - 0% 220 mhos 15000 - Yes - - -
11/20/2017 20:10 Chemically Wet 29.7F - 31F 3F 20 50% 0.00 in - 0% 213 mhos 15000 - Yes - - -
11/20/2017 20:01 Ice Watch 29.3F - 31F - 25 - - - - 192 mhos 15000 - None None - -
11/20/2017 19:55 Ice Watch 29.5F - 31F - 25 - - - - 180 mhos 15000 - None None - -
11/20/2017 19:51 Ice Watch 29.3F - 31F - 20 - - - - 175 mhos 15000 - None None - -
11/20/2017 19:41 Ice Watch 29.5F - 31F - 20 - - - - 161 mhos 15000 - None None - -
11/20/2017 19:40 Ice Watch 29.5F - 31F - 20 - - - - 156 mhos 15000 - None None - -
11/20/2017 19:31 Ice Watch 29.3F - 31F - 20 - - - - 141 mhos 15000 - None None - -
11/20/2017 19:25 Ice Watch 29.3F - 31F - 20 - - - - 132 mhos 15000 - None None - -
11/20/2017 19:21 Ice Watch 29.3F - 31F - 20 - - - - 129 mhos 15000 - None None - -
11/20/2017 19:11 Ice Watch 29.3F - 31F - 20 - - - - 114 mhos 15000 - None None - -
Date/Time
(MST)
Sf
Temp Chem Water Layer Surface Precipitation
Sfc Pvt Sub Frz Factor Pct Dpth DpthThk IcePct Cond Salin FI Type Intens Accum Rate
11/20/2017 19:10 Ice Watch 29.3F - 31F - 20 - - - - 114 mhos 15000 - None None - -
11/20/2017 19:01 Ice Watch 29.3F - 31F - 15 - - - - 102 mhos 15000 - None None - -
11/20/2017 18:55 Ice Watch 29.1F - 31F - 15 - - - - 95 mhos 15000 - None None - -
11/20/2017 18:51 Ice Watch 29.1F - 31F - 15 - - - - 92 mhos 15000 - None None - -
11/20/2017 18:41 Ice Watch 28.9F - 31F - 15 - - - - 82 mhos 15000 - None None - -
11/20/2017 18:40 Ice Watch 28.9F - 31F - 15 - - - - 81 mhos 15000 - None None - -
11/20/2017 18:31 Ice Watch 28.9F - 31F - 10 - - - - 73 mhos 15000 - None None - -
11/20/2017 18:25 Ice Watch 28.9F - 31F - 10 - - - - 68 mhos 11468 - None None - -
11/20/2017 18:21 Ice Watch 28.6F - 31F - 5 - - - - 65 mhos 10411 - None None - -
11/20/2017 18:10 Ice Watch 28.8F - 31F - 5 - - - - 58 mhos 8425 - None None - -
11/20/2017 18:10 Ice Watch 28.4F - 31F - 5 - - - - 57 mhos 8343 - None None - -
11/20/2017 18:00 Ice Watch 28.4F - 31F - 5 - - - - 52 mhos 7145 - None None - -
11/20/2017 17:55 Ice Watch 28.2F - 31F - 5 - - - - 46 mhos 6130 - None None - -
11/20/2017 17:50 Ice Watch 27.9F - 31F - 5 - - - - 44 mhos 5778 - None None - -
11/20/2017 17:40 Ice Watch 27.7F - 31F - 5 - - - - 39 mhos 5003 - None None - -
Date/Time
(MST)
Sf
Temp Chem Water Layer Surface Precipitation
Sfc Pvt Sub Frz Factor Pct Dpth DpthThk IcePct Cond Salin FI Type Intens Accum Rate
11/20/2017 17:40 Ice Watch 27.7F - 31F - 5 - - - - 38 mhos 4877 - None None - -
11/20/2017 17:30 Ice Watch 27.7F - 31F - 5 - - - - 34 mhos 4272 - None None - -
11/20/2017 17:25 Ice Watch 27.3F - 31F - 5 - - - - 32 mhos 4026 - None None - -
11/20/2017 17:20 Ice Watch 27.3F - 31F - 5 - - - - 30 mhos 3872 - None None - -
11/20/2017 17:10 Ice Watch 27.5F - 31F - 5 - - - - 27 mhos 3447 - None None - -
11/20/2017 17:10 Ice Watch 27.7F - 31F - 5 - - - - 26 mhos 3381 - None None - -
11/20/2017 17:00 Ice Watch 27.9F - 31F - 5 - - - - 23 mhos 2985 - None None - -
11/20/2017 16:55 Ice Watch 28.2F - 31F - 5 - - - - 21 mhos 2691 - None None - -
11/20/2017 16:50 Ice Watch 28.6F - 31F - 5 - - - - 20 mhos 2424 - None None - -
11/20/2017 16:40 Ice Watch 29.8F - 31F - 5 - - - - 16 mhos 1818 - None None - -
11/20/2017 16:40 Ice Watch 29.8F - 31F - 5 - - - - 16 mhos 1818 - None None - -
11/20/2017 16:30 Ice Watch 30.9F - 31F - 5 - - - - 13 mhos 1367 - None None - -
11/20/2017 16:25 Ice Watch 31.1F - 31F - 5 - - - - 12 mhos 1289 - None None - -
11/20/2017 16:20 Ice Watch 31.3F - 31F - 5 - - - - 11 mhos 1207 - None None - -
11/20/2017 16:10 Ice Watch 31.8F - 31F - 20 - - - - 11 mhos 1094 - None None - -
Date/Time
(MST)
Sf
Temp Chem Water Layer Surface Precipitation
Sfc Pvt Sub Frz Factor Pct Dpth DpthThk IcePct Cond Salin FI Type Intens Accum Rate
11/20/2017 16:10 Ice Watch 31.8F - 31F - 20 - - - - 11 mhos 1094 - None None - -
11/20/2017 16:00 Trace Moisture 32.5F - 31F - 45 - - - - 10 mhos 1025 - None None - -
11/20/2017 15:55 Trace Moisture 33.3F - 31F - 55 - - - - 10 mhos 1010 - None None - -
11/20/2017 15:50 Trace Moisture 33.6F - 31F - 55 - - - - 10 mhos 1011 - None None - -
11/20/2017 15:40 Trace Moisture 32.9F - 31F - 55 - - - - 10 mhos 1009 - None None - -
11/20/2017 15:40 Trace Moisture 32.9F - 31F - 55 - - - - 10 mhos 1009 - None None - -
11/20/2017 15:30 Trace Moisture 32.7F - 31F - 55 - - - - 10 mhos 995 - None None - -
11/20/2017 15:25 Trace Moisture 32.5F - 31F - 50 - - - - 10 mhos 999 - None None - -
11/20/2017 15:19 Trace Moisture 32.4F - 31F - 50 - - - - 10 mhos 982 - None None - -
11/20/2017 15:10 Trace Moisture 32.4F - 31F - 60 - - - - 9 mhos 974 - None None - -
11/20/2017 15:09 Trace Moisture 32.4F - 31F - 60 - - - - 9 mhos 974 - None None - -
11/20/2017 14:59 Trace Moisture 32.2F - 31F - 60 - - - - 10 mhos 978 - None None - -
11/20/2017 14:55 Ice Watch 31.8F - 31F - 55 - - - - 9 mhos 970 - None None - -
11/20/2017 14:49 Ice Watch 31.6F - 31F - 60 - - - - 9 mhos 960 - None None - -
11/20/2017 14:40 Ice Watch 32.0F - 31F - 65 - - - - 9 mhos 946 - None None - -
Date/Time
(MST)
Sf
Temp Chem Water Layer Surface Precipitation
Sfc Pvt Sub Frz Factor Pct Dpth DpthThk IcePct Cond Salin FI Type Intens Accum Rate
11/20/2017 14:39 Trace Moisture 32.2F - 31F - 65 - - - - 9 mhos 944 - None None - -
11/20/2017 14:29 Trace Moisture 32.2F - 31F - 65 - - - - 9 mhos 912 - None None - -
11/20/2017 14:25 Ice Watch 32.0F - 31F - 70 - - - - 9 mhos 902 - None None - -
11/20/2017 14:19 Ice Watch 32.0F - 31F - 70 - - - - 9 mhos 895 - None None - -
11/20/2017 14:10 Trace Moisture 32.4F - 31F - 70 - - - - 9 mhos 883 - None None - -
11/20/2017 14:09 Trace Moisture 32.2F - 31F - 70 - - - - 9 mhos 880 - None None - -
11/20/2017 13:59 Trace Moisture 32.5F - 31F - 75 - - - - 9 mhos 937 - None None - -
11/20/2017 13:55 Trace Moisture 32.7F - 31F - 75 - - - - 9 mhos 935 - None None - -
11/20/2017 13:49 Trace Moisture 33.3F - 31F - 75 - - - - 9 mhos 936 - None None - -
11/20/2017 13:40 Trace Moisture 33.4F - 31F - 80 - - - - 9 mhos 955 - None None - -
11/20/2017 13:39 Trace Moisture 33.6F - 31F - 80 - - - - 9 mhos 957 - None None - -
11/20/2017 13:29 Trace Moisture 33.6F - 31F - 75 - - - - 10 mhos 990 - None None - -
11/20/2017 13:25 Trace Moisture 33.6F - 31F - 75 - - - - 10 mhos 1007 - None None - -
11/20/2017 13:19 Trace Moisture 33.3F - 31F - 75 - - - - 9 mhos 961 - None None - -
11/20/2017 13:10 Trace Moisture 32.9F - 31F - 70 - - - - 10 mhos 1011 - None None - -
Date/Time
(MST)
Sf
Temp Chem Water Layer Surface Precipitation
Sfc Pvt Sub Frz Factor Pct Dpth DpthThk IcePct Cond Salin FI Type Intens Accum Rate
11/20/2017 13:09 Trace Moisture 32.7F - 31F - 70 - - - - 10 mhos 1016 - None None - -
11/20/2017 12:59 Ice Watch 32.0F - 31F - 65 - - - - 10 mhos 1053 - None None - -
11/20/2017 12:55 Ice Watch 31.6F - 31F - 65 - - - - 10 mhos 1069 - None None - -
11/20/2017 12:49 Ice Watch 31.5F - 31F - 65 - - - - 10 mhos 1084 - None None - -
11/20/2017 12:40 Ice Watch 31.3F - 31F - 60 - - - - 11 mhos 1110 - None None - -
11/20/2017 12:38 Ice Watch 31.1F - 31F - 60 - - - - 11 mhos 1116 - None None - -
11/20/2017 12:28 Ice Watch 31.1F - 31F - 65 - - - - 11 mhos 1137 - None None - -
11/20/2017 12:25 Ice Watch 31.1F - 31F - 65 - - - - 11 mhos 1155 - None None - -
11/20/2017 12:18 Ice Watch 31.1F - 31F - 60 - - - - 11 mhos 1186 - None None - -
11/20/2017 12:10 Ice Watch 30.6F - 31F - 60 - - - - 12 mhos 1278 - None None - -
11/20/2017 12:08 Ice Watch 30.6F - 31F - 60 - - - - 12 mhos 1270 - None None - -
11/20/2017 11:58 Ice Watch 30.2F - 31F - 55 - - - - 12 mhos 1350 - None None - -
11/20/2017 11:55 Ice Watch 30.2F - 31F - 55 - - - - 12 mhos 1389 - None None - -
11/20/2017 11:48 Ice Watch 30.0F - 31F - 60 - - - - 13 mhos 1437 - None None - -
11/20/2017 11:40 Ice Watch 29.7F - 31F - 55 - - - - 13 mhos 1541 - None None - -
Date/Time
(MST)
Sf
Temp Chem Water Layer Surface Precipitation
Sfc Pvt Sub Frz Factor Pct Dpth DpthThk IcePct Cond Salin FI Type Intens Accum Rate
11/20/2017 11:38 Ice Watch 29.5F - 31F - 55 - - - - 13 mhos 1563 - None None - -
11/20/2017 11:28 Ice Watch 28.9F - 31F - 50 - - - - 14 mhos 1696 - None None - -
11/20/2017 11:25 Ice Watch 28.9F - 31F - 50 - - - - 14 mhos 1746 - None None - -
11/20/2017 11:18 Ice Watch 28.6F - 31F - 45 - - - - 14 mhos 1831 - None None - -
11/20/2017 11:10 Ice Watch 28.2F - 31F - 45 - - - - 15 mhos 1947 - None None - -
11/20/2017 11:08 Ice Watch 28.4F - 31F - 45 - - - - 15 mhos 1956 - None None - -
11/20/2017 10:58 Ice Watch 28.2F - 31F - 45 - - - - 16 mhos 2106 - None None - -
11/20/2017 10:55 Ice Watch 27.9F - 31F - 40 - - - - 17 mhos 2198 - None None - -
11/20/2017 10:48 Ice Watch 27.9F - 31F - 40 - - - - 18 mhos 2325 - None None - -
11/20/2017 10:40 Ice Watch 27.1F - 31F - 30 - - - - 19 mhos 2559 - None None - -
11/20/2017 10:38 Ice Watch 27.1F - 31F - 30 - - - - 19 mhos 2621 - None None - -
11/20/2017 10:28 Ice Watch 26.8F - 31F - 25 - - - - 20 mhos 2819 - None None - -
11/20/2017 10:25 Ice Watch 26.6F - 31F - 25 - - - - 21 mhos 2932 - None None - -
11/20/2017 10:18 Ice Watch 26.6F - 31F - 20 - - - - 22 mhos 3068 - None None - -
11/20/2017 10:10 Ice Watch 26.4F - 31F - 15 - - - - 23 mhos 3262 - None None - -
Date/Time
(MST)
Sf
Temp Chem Water Layer Surface Precipitation
Sfc Pvt Sub Frz Factor Pct Dpth DpthThk IcePct Cond Salin FI Type Intens Accum Rate
11/20/2017 10:08 Ice Watch 26.4F - 31F - 15 - - - - 23 mhos 3310 - None None - -
11/20/2017 09:57 Ice Watch 25.9F - 31F - 5 - - - - 25 mhos 3644 - None None - -
11/20/2017 09:55 Ice Watch 25.7F - 31F - 5 - - - - 26 mhos 3742 - None None - -
11/20/2017 09:47 Ice Watch 25.5F - 31F - 5 - - - - 26 mhos 3904 - None None - -
11/20/2017 09:40 Ice Watch 25.2F - 31F - 5 - - - - 27 mhos 4130 - None None - -
11/20/2017 09:37 Ice Watch 25.2F - 31F - 5 - - - - 28 mhos 4210 - None None - -
11/20/2017 09:27 Ice Watch 24.6F - 31F - 5 - - - - 30 mhos 4556 - None None - -
11/20/2017 09:25 Ice Watch 24.6F - 31F - 5 - - - - 30 mhos 4621 - None None - -
11/20/2017 09:17 Ice Watch 24.3F - 31F - 5 - - - - 31 mhos 4833 - None None - -
11/20/2017 09:10 Ice Watch 23.9F - 31F - 5 - - - - 32 mhos 5055 - None None - -
11/20/2017 09:07 Ice Watch 23.7F - 31F - 5 - - - - 33 mhos 5169 - None None - -
11/20/2017 08:57 Ice Watch 23.4F - 31F - 5 - - - - 34 mhos 5477 - None None - -
11/20/2017 08:55 Ice Watch 23.4F - 31F - 5 - - - - 34 mhos 5553 - None None - -
11/20/2017 08:47 Ice Watch 23.0F - 31F - 5 - - - - 36 mhos 5809 - None None - -
11/20/2017 08:40 Ice Watch 22.5F - 31F - 5 - - - - 37 mhos 6075 - None None - -
Date/Time
(MST)
Sf
Temp Chem Water Layer Surface Precipitation
Sfc Pvt Sub Frz Factor Pct Dpth DpthThk IcePct Cond Salin FI Type Intens Accum Rate
11/20/2017 08:37 Ice Watch 22.3F - 31F - 5 - - - - 37 mhos 6185 - None None - -
11/20/2017 08:27 Ice Watch 21.7F - 31F - 5 - - - - 38 mhos 6502 - None None - -
11/20/2017 08:25 Ice Watch 21.7F - 31F - 5 - - - - 38 mhos 6519 - None None - -
11/20/2017 08:17 Ice Watch 21.4F - 31F - 5 - - - - 39 mhos 6692 - None None - -
11/20/2017 08:10 Ice Watch 21.2F - 31F - 5 - - - - 39 mhos 6805 - None None - -
11/20/2017 08:07 Ice Watch 21.2F - 31F - 5 - - - - 39 mhos 6805 - None None - -
11/20/2017 07:57 Ice Watch 20.8F - 31F - 5 - - - - 39 mhos 6950 - None None - -
11/20/2017 07:55 Ice Watch 20.8F - 31F - 5 - - - - 39 mhos 6950 - None None - -
11/20/2017 07:47 Ice Watch 20.7F - 31F - 5 - - - - 39 mhos 7038 - None None - -
11/20/2017 07:40 Ice Watch 20.5F - 31F - 5 - - - - 39 mhos 7096 - None None - -
11/20/2017 07:37 Ice Watch 20.5F - 31F - 5 - - - - 39 mhos 7096 - None None - -
11/20/2017 07:27 Ice Watch 20.3F - 31F - 5 - - - - 39 mhos 7211 - None None - -
11/20/2017 07:25 Ice Watch 20.1F - 31F - 5 - - - - 39 mhos 7251 - None None - -
11/20/2017 07:16 Ice Watch 20.1F - 31F - 5 - - - - 39 mhos 7251 - None None - -
11/20/2017 07:10 Ice Watch 20.3F - 31F - 5 - - - - 39 mhos 7211 - None None - -
Date/Time
(MST)
Sf
Temp Chem Water Layer Surface Precipitation
Sfc Pvt Sub Frz Factor Pct Dpth DpthThk IcePct Cond Salin FI Type Intens Accum Rate
11/20/2017 07:06 Ice Watch 20.3F - 31F - 5 - - - - 39 mhos 7180 - None None - -
11/20/2017 06:56 Ice Watch 20.3F - 31F - 5 - - - - 39 mhos 7164 - None None - -
11/20/2017 06:55 Ice Watch 20.3F - 31F - 5 - - - - 39 mhos 7123 - None None - -
11/20/2017 06:46 Ice Watch 20.5F - 31F - 5 - - - - 39 mhos 7065 - None None - -
11/20/2017 06:40 Ice Watch 20.3F - 31F - 5 - - - - 39 mhos 7123 - None None - -
11/20/2017 06:36 Ice Watch 20.5F - 31F - 5 - - - - 39 mhos 7136 - None None - -
11/20/2017 06:26 Ice Watch 20.3F - 31F - 5 - - - - 39 mhos 7154 - None None - -
11/20/2017 06:25 Ice Watch 20.3F - 31F - 5 - - - - 40 mhos 7185 - None None - -
11/20/2017 06:16 Ice Watch 20.3F - 31F - 5 - - - - 40 mhos 7185 - None None - -
11/20/2017 06:10 Ice Watch 20.3F - 31F - 5 - - - - 40 mhos 7185 - None None - -
11/20/2017 06:06 Ice Watch 20.3F - 31F - 5 - - - - 40 mhos 7185 - None None - -
11/20/2017 05:56 Ice Watch 20.5F - 31F - 5 - - - - 40 mhos 7141 - None None - -
11/20/2017 05:55 Ice Watch 20.7F - 31F - 5 - - - - 40 mhos 7100 - None None - -
11/20/2017 05:46 Ice Watch 20.7F - 31F - 5 - - - - 40 mhos 7132 - None None - -
11/20/2017 05:40 Ice Watch 20.7F - 31F - 5 - - - - 40 mhos 7132 - None None - -
Date/Time
(MST)
Sf
Temp Chem Water Layer Surface Precipitation
Sfc Pvt Sub Frz Factor Pct Dpth DpthThk IcePct Cond Salin FI Type Intens Accum Rate
11/20/2017 05:36 Ice Watch 20.5F - 31F - 5 - - - - 40 mhos 7190 - None None - -
11/20/2017 05:26 Ice Watch 20.5F - 31F - 5 - - - - 40 mhos 7263 - None None - -
11/20/2017 05:25 Ice Watch 20.5F - 31F - 5 - - - - 41 mhos 7255 - None None - -
11/20/2017 05:16 Ice Watch 20.3F - 31F - 5 - - - - 41 mhos 7404 - None None - -
11/20/2017 05:10 Ice Watch 20.1F - 31F - 5 - - - - 41 mhos 7430 - None None - -
11/20/2017 05:06 Ice Watch 19.9F - 31F - 5 - - - - 40 mhos 7457 - None None - -
11/20/2017 04:56 Ice Watch 19.6F - 31F - 5 - - - - 40 mhos 7478 - None None - -
11/20/2017 04:55 Ice Watch 19.6F - 31F - 5 - - - - 40 mhos 7478 - None None - -
11/20/2017 04:46 Ice Watch 19.9F - 31F - 5 - - - - 39 mhos 7328 - None None - -
11/20/2017 04:40 Ice Watch 20.1F - 31F - 5 - - - - 39 mhos 7221 - None None - -
11/20/2017 04:36 Ice Watch 20.3F - 31F - 5 - - - - 39 mhos 7092 - None None - -
11/20/2017 04:25 Ice Watch 20.7F - 31F - 5 - - - - 38 mhos 6946 - None None - -
11/20/2017 04:25 Ice Watch 20.7F - 31F - 5 - - - - 38 mhos 6946 - None None - -
11/20/2017 04:15 Ice Watch 21.2F - 31F - 5 - - - - 38 mhos 6775 - None None - -
11/20/2017 04:10 Ice Watch 21.4F - 31F - 5 - - - - 38 mhos 6689 - None None - -
Date/Time
(MST)
Sf
Temp Chem Water Layer Surface Precipitation
Sfc Pvt Sub Frz Factor Pct Dpth DpthThk IcePct Cond Salin FI Type Intens Accum Rate
11/20/2017 04:05 Ice Watch 21.6F - 31F - 5 - - - - 38 mhos 6576 - None None - -
11/20/2017 03:55 Ice Watch 21.9F - 31F - 5 - - - - 38 mhos 6493 - None None - -
11/20/2017 03:55 Ice Watch 21.9F - 31F - 5 - - - - 38 mhos 6493 - None None - -
11/20/2017 03:45 Ice Watch 22.1F - 31F - 5 - - - - 39 mhos 6497 - None None - -
11/20/2017 03:40 Ice Watch 22.3F - 31F - 5 - - - - 40 mhos 6501 - None None - -
11/20/2017 03:35 Ice Watch 21.9F - 31F - 5 - - - - 40 mhos 6626 - None None - -
11/20/2017 03:25 Ice Watch 21.6F - 31F - 5 - - - - 40 mhos 6788 - None None - -
11/20/2017 03:25 Ice Watch 21.6F - 31F - 5 - - - - 40 mhos 6788 - None None - -
11/20/2017 03:15 Ice Watch 21.6F - 31F - 5 - - - - 40 mhos 6788 - None None - -
11/20/2017 03:10 Ice Watch 21.6F - 31F - 5 - - - - 40 mhos 6819 - None None - -
11/20/2017 03:05 Ice Watch 21.4F - 31F - 5 - - - - 40 mhos 6845 - None None - -
11/20/2017 02:55 Ice Watch 21.2F - 31F - 5 - - - - 39 mhos 6866 - None None - -
11/20/2017 02:55 Ice Watch 21.2F - 31F - 5 - - - - 39 mhos 6866 - None None - -
11/20/2017 02:45 Ice Watch 21.0F - 31F - 5 - - - - 38 mhos 6801 - None None - -
11/20/2017 02:40 Ice Watch 21.4F - 31F - 5 - - - - 38 mhos 6602 - None None - -
Date/Time
(MST)
Sf
Temp Chem Water Layer Surface Precipitation
Sfc Pvt Sub Frz Factor Pct Dpth DpthThk IcePct Cond Salin FI Type Intens Accum Rate
11/20/2017 02:35 Ice Watch 21.6F - 31F - 5 - - - - 38 mhos 6517 - None None - -
11/20/2017 02:25 Ice Watch 21.4F - 31F - 5 - - - - 37 mhos 6516 - None None - -
11/20/2017 02:25 Ice Watch 21.4F - 31F - 5 - - - - 37 mhos 6516 - None None - -
11/20/2017 02:15 Ice Watch 21.2F - 31F - 5 - - - - 36 mhos 6526 - None None - -
11/20/2017 02:10 Ice Watch 21.2F - 31F - 5 - - - - 36 mhos 6488 - None None - -
11/20/2017 02:05 Ice Watch 21.0F - 31F - 5 - - - - 36 mhos 6488 - None None - -
11/20/2017 01:55 Ice Watch 21.2F - 31F - 5 - - - - 35 mhos 6337 - None None - -
11/20/2017 01:55 Ice Watch 21.4F - 31F - 5 - - - - 35 mhos 6299 - None None - -
11/20/2017 01:44 Ice Watch 21.6F - 31F - 5 - - - - 34 mhos 6137 - None None - -
11/20/2017 01:40 Ice Watch 21.6F - 31F - 5 - - - - 34 mhos 6120 - None None - -
11/20/2017 01:34 Ice Watch 21.6F - 31F - 5 - - - - 34 mhos 6149 - None None - -
11/20/2017 01:25 Ice Watch 21.6F - 31F - 5 - - - - 34 mhos 6086 - None None - -
11/20/2017 01:24 Ice Watch 21.6F - 31F - 5 - - - - 34 mhos 6086 - None None - -
Change End Date:

Copyright © 1998-2015 Vaisala, Inc.
All Rights Reserved
Send comments about the data to:
SCAN Web ® is a registered trademark of Vaisala, Inc.
SCAN Web Version 6.0